STARLINK AH

Last updated on June 19, 2020, 12:02 a.m. UTC

1 45761U 20038AH  20170.75001157  .00114496  11276-4  14174-3 0  9998
2 45761  52.9995 271.8064 0111237  69.4890 148.4033 15.96210841  1958

Satellite is not in orbit.